TimeEST,TemperatureF,Dew PointF,Humidity,Sea Level PressureIn,VisibilityMPH,Wind Direction,Wind SpeedMPH,Gust SpeedMPH,PrecipitationIn,Events,Conditions,WindDirDegrees,DateUTC
12:53 AM,17.1,10.9,77,30.22,10.0,South,10.4,-,N/A,,Overcast,180,2013-02-10 05:53:00
1:53 AM,18.0,12.0,78,30.20,10.0,South,6.9,-,N/A,,Overcast,190,2013-02-10 06:53:00
2:53 AM,18.0,12.0,78,30.18,10.0,SSW,9.2,-,N/A,,Clear,200,2013-02-10 07:53:00
3:53 AM,16.0,12.9,88,30.17,10.0,SSW,9.2,-,N/A,,Clear,200,2013-02-10 08:53:00
4:53 AM,16.0,12.9,88,30.17,9.0,South,9.2,-,N/A,,Scattered Clouds,190,2013-02-10 09:53:00
5:53 AM,15.1,12.9,91,30.17,8.0,South,8.1,-,N/A,,Mostly Cloudy,190,2013-02-10 10:53:00
6:53 AM,14.0,12.0,92,30.17,6.0,South,6.9,-,N/A,,Partly Cloudy,180,2013-02-10 11:53:00
7:53 AM,14.0,12.0,92,30.17,6.0,Calm,Calm,-,N/A,,Clear,0,2013-02-10 12:53:00
8:53 AM,15.1,12.9,91,30.14,7.0,SE,5.8,-,N/A,,Clear,130,2013-02-10 13:53:00
9:53 AM,18.0,15.1,88,30.11,9.0,SE,8.1,-,N/A,,Clear,140,2013-02-10 14:53:00
10:53 AM,23.0,17.1,78,30.06,10.0,SSE,9.2,-,N/A,,Clear,150,2013-02-10 15:53:00
11:53 AM,27.0,19.0,72,30.05,10.0,SSE,8.1,-,N/A,,Mostly Cloudy,150,2013-02-10 16:53:00
12:53 PM,30.0,19.9,66,30.00,10.0,SE,10.4,-,N/A,,Clear,140,2013-02-10 17:53:00
1:53 PM,33.1,23.0,66,29.96,10.0,SSE,12.7,21.9,0.00,,Mostly Cloudy,150,2013-02-10 18:53:00
2:33 PM,32.0,23.0,69,29.87,10.0,SE,8.1,-,N/A,,Overcast,130,2013-02-10 19:33:00
2:53 PM,32.0,21.9,66,29.92,10.0,ESE,8.1,-,N/A,,Overcast,110,2013-02-10 19:53:00
3:53 PM,30.9,21.9,69,29.89,10.0,ESE,8.1,-,N/A,,Overcast,120,2013-02-10 20:53:00
4:38 PM,32.0,21.2,64,29.78,10.0,ESE,9.2,-,N/A,,Overcast,120,2013-02-10 21:38:00
4:53 PM,33.1,21.9,64,29.83,10.0,SE,10.4,-,N/A,,Overcast,130,2013-02-10 21:53:00
5:43 PM,32.0,24.8,75,29.74,9.0,SE,15.0,-,0.01,Rain,Light Freezing Rain,130,2013-02-10 22:43:00
5:53 PM,30.9,25.0,79,29.80,8.0,SE,12.7,20.7,0.01,Rain,Light Freezing Rain,130,2013-02-10 22:53:00
6:21 PM,30.2,24.8,80,29.71,8.0,SE,16.1,23.0,0.00,Rain,Light Freezing Rain,130,2013-02-10 23:21:00
6:36 PM,30.2,24.8,80,29.70,10.0,ESE,16.1,20.7,0.00,,Overcast,120,2013-02-10 23:36:00
6:53 PM,30.0,25.0,82,29.75,9.0,SE,17.3,25.3,0.00,,Overcast,130,2013-02-10 23:53:00
7:08 PM,30.2,26.6,86,29.69,7.0,SE,18.4,24.2,0.01,Rain,Light Freezing Rain,130,2013-02-11 00:08:00
7:53 PM,30.0,27.0,88,29.73,6.0,SE,13.8,21.9,0.03,Rain,Light Freezing Rain,140,2013-02-11 00:53:00
8:00 PM,30.2,28.4,93,29.66,4.0,SE,13.8,-,0.00,Rain,Light Freezing Rain,140,2013-02-11 01:00:00
8:39 PM,30.2,28.4,93,29.63,4.0,SE,13.8,25.3,0.01,,Overcast,130,2013-02-11 01:39:00
8:53 PM,32.0,30.0,92,29.68,3.0,SSE,16.1,-,0.02,Rain,Light Freezing Rain,150,2013-02-11 01:53:00
9:53 PM,33.1,30.9,92,29.64,4.0,SSE,17.3,-,0.04,Rain,Light Freezing Rain,160,2013-02-11 02:53:00
10:02 PM,33.8,30.2,87,29.58,4.0,SSE,13.8,24.2,0.02,Rain,Light Freezing Rain,150,2013-02-11 03:02:00
10:09 PM,33.8,30.2,87,29.58,5.0,SSE,16.1,21.9,0.02,Rain,Light Freezing Rain,150,2013-02-11 03:09:00
10:24 PM,33.8,32.0,93,29.57,3.0,SSE,15.0,25.3,0.03,Snow,Light Snow,150,2013-02-11 03:24:00
11:53 PM,34.0,32.0,92,29.57,10.0,South,15.0,-,0.00,,Overcast,170,2013-02-11 04:53:00